Content
SEND FEEDBACK

Daily
Averages
Monthly
Summary
Indonesia

HASANUDIN, INDONESIA


Home > Asia > Indonesia
Elevation: 46 feet     Latitude: 05 04S     Longitude: 119 33E

WEATHER
 
SELECT A DAY
Number of Records: 202,936;   Date Range: 9/17/97 - 9/29/14
 
SHARE

PRINT THIS DATA

[ ← Previous Day ]
WEATHER ALMANAC - JANUARY 24, 2013
[ Next Day → ]
[ °C ]   °F
Weather ElementAverageHighLow
Temperature79 °F87.8 °F (2:30 pm)75.2 °F (5:30 pm)
Dewpoint77.6 °F81 °F (11:00 am)75.2 °F (1:00 pm)
Humidity96 %100 % (12:30 am)67 % (2:00 pm)
Barometer29.39 in29.94 in (8:00 am) (7:00 pm)
Wind Speed4.2 mph16.1 mph (3:55 pm)
Wind Gust34.5 mph (3:54 pm)
Weather ElementAverage
Visibility4.2 mi
Wind DirectionESE (106.7 °)

Weather ElementTotal
Precipitation---
Cooling Degree Days16.5 (Base 65)
Growing Degree Days31.5 (Base 50)
Averaged from 63 records on January 24, 2013
WEATHER CONDITIONS BREAKOUT
WIND DIRECTION BREAKOUT
WEATHER BY HOUR - JANUARY 24, 2013
[ °C ]   °F
Local TimeTemperatureDewpointHumidityBarometerVisibilityWind DirectionWind SpeedGust SpeedPrecipitationEventsConditions
12:30 AM78.8 °F78.8 °F100 %29.86 in4.3 miENE (60°)2.3 mphMostly Cloudy
1:00 AM78.8 °F78.8 °F100 %29.86 in4.3 miCalmMostly Cloudy
1:30 AM78.8 °F78.8 °F100 %29.86 in4.3 miVariable2.3 mphMostly Cloudy
1:47 AM78.8 °F78.8 °F100 %29.83 in3.1 miNorth (350°)4.6 mphRainLight Rain
2:00 AM77.0 °F77.0 °F100 %29.85 in3.0 miSouth (170°)5.8 mphRainLight Rain
2:00 AM77.0 °F77.0 °F100 %29.83 in3.1 miVariable2.3 mphRainLight Rain
2:30 AM77.0 °F77.0 °F100 %29.83 in3.7 miSSE (160°)2.3 mph
3:00 AM77.0 °F77.0 °F100 %29.83 in3.7 miNE (40°)2.3 mphScattered Clouds
3:30 AM77.0 °F77.0 °F100 %29.83 in3.7 miENE (70°)5.8 mph
4:00 AM77.0 °F77.0 °F100 %29.83 in3.7 miEast (100°)4.6 mph
4:30 AM77.0 °F77.0 °F100 %29.86 in4.3 miSE (130°)3.5 mphScattered Clouds
5:00 AM78.0 °F78.0 °F100 %29.86 in4.0 miSE (130°)1.2 mphPartly Cloudy
5:00 AM78.8 °F78.8 °F100 %29.86 in4.3 miVariable1.2 mph
5:30 AM78.8 °F78.8 °F100 %29.86 in4.3 miVariable1.2 mph
5:52 AM78.8 °F78.8 °F100 %29.86 in3.1 miEast (100°)3.5 mphRainLight Rain
6:00 AM78.8 °F78.8 °F100 %29.86 in3.1 miEast (80°)3.5 mphRainLight Rain
6:30 AM78.8 °F78.8 °F100 %29.89 in4.3 miWest (280°)9.2 mphScattered Clouds
7:00 AM78.8 °F78.8 °F100 %29.89 in4.3 miWest (280°)4.6 mphScattered Clouds
7:30 AM78.8 °F78.8 °F100 %29.92 in5.0 miCalmPartly Cloudy
7:51 AM78.8 °F78.8 °F100 %29.92 in5.0 miESE (110°)3.5 mphRainLight Rain
8:00 AM78.0 °F78.0 °F100 %29.94 in5.0 miESE (120°)3.5 mphRainLight Rain
8:00 AM78.8 °F78.8 °F100 %29.92 in5.0 miESE (110°)3.5 mphRainLight Rain
8:30 AM78.8 °F78.8 °F100 %29.92 in5.0 miEast (100°)5.8 mphRainLight Rain
9:00 AM78.8 °F78.8 °F100 %29.92 in4.3 miEast (90°)4.6 mphRainLight Rain
9:30 AM78.8 °F78.8 °F100 %29.92 in5.6 miENE (70°)4.6 mphPartly Cloudy
10:00 AM80.6 °F80.6 °F100 %29.89 in6.2 miEast (80°)4.6 mphPartly Cloudy
10:30 AM80.6 °F80.6 °F100 %29.89 in6.2 miEast (80°)6.9 mphPartly Cloudy
11:00 AM81.0 °F81.0 °F99 %29.89 in6.0 miENE (70°)4.6 mphPartly Cloudy
11:00 AM80.6 °F80.6 °F100 %29.89 in6.2 miEast (80°)5.8 mphPartly Cloudy
11:30 AM82.4 °F80.6 °F94 %29.86 in6.2 miENE (60°)2.3 mphPartly Cloudy
12:00 PM82.4 °F77.0 °F84 %29.86 in6.2 miVariable2.3 mphPartly Cloudy
12:30 PM84.2 °F77.0 °F79 %29.86 in6.2 miEast (80°)3.5 mphPartly Cloudy
1:00 PM84.2 °F75.2 °F74 %29.86 in6.2 miEast (80°)3.5 mphPartly Cloudy
1:30 PM86.0 °F77.0 °F74 %29.83 in6.2 miVariable3.5 mphScattered Clouds
2:00 PM86.0 °F77.0 °F67 %29.83 in6.0 miWNW (290°)4.6 mphPartly Cloudy
2:00 PM86.0 °F77.0 °F74 %29.83 in6.2 miENE (60°)3.5 mphScattered Clouds
2:30 PM87.8 °F77.0 °F70 %29.80 in6.2 miNW (320°)5.8 mphScattered Clouds
3:00 PM86.0 °F77.0 °F74 %29.80 in6.2 miNW (310°)8.1 mphScattered Clouds
3:30 PM86.0 °F77.0 °F74 %29.80 in5.0 miNW (320°)5.8 mphScattered Clouds
3:54 PM80.6 °F77.0 °F89 %29.83 in1.9 miWest (280°)15.0 mph34.5 mphRainHeavy Rain
3:55 PM80.6 °F78.8 °F94 %29.83 in1.9 miWest (270°)16.1 mph34.5 mphRainHeavy Rain
4:30 PM77.0 °F77.0 °F100 %3.1 miWSW (240°)6.9 mphRainLight Rain
5:00 PM76.0 °F76.0 °F100 %29.86 in3.0 miEast (100°)3.5 mphRainLight Rain
5:00 PM77.0 °F77.0 °F100 %29.86 in3.1 miVariable2.3 mphRainLight Rain
5:30 PM75.2 °F75.2 °F100 %29.86 in3.1 miEast (90°)6.9 mphRainLight Rain
6:00 PM75.2 °F75.2 °F100 %29.86 in3.1 miEast (100°)6.9 mphRainLight Rain
6:30 PM75.2 °F75.2 °F100 %29.83 in3.1 miEast (100°)5.8 mphRainLight Rain
7:00 PM75.2 °F75.2 °F100 %29.83 in3.7 miESE (120°)3.5 mphRainLight Rain
7:30 PM77.0 °F77.0 °F100 %29.86 in3.7 miVariable2.3 mphRainLight Rain
8:00 PM76.0 °F76.0 °F100 %29.86 in4.0 miSE (130°)1.2 mphRainLight Rain
8:00 PM77.0 °F77.0 °F100 %29.86 in3.7 miVariable1.2 mphScattered Clouds
8:30 PM77.0 °F77.0 °F100 %29.86 in3.7 miVariable2.3 mphScattered Clouds
9:00 PM77.0 °F77.0 °F100 %29.86 in3.7 miESE (110°)4.6 mphScattered Clouds
9:30 PM77.0 °F77.0 °F100 %29.89 in3.7 miEast (80°)2.3 mphScattered Clouds
10:00 PM77.0 °F77.0 °F100 %29.89 in3.7 miNE (50°)3.5 mphScattered Clouds
10:30 PM77.0 °F77.0 °F100 %29.89 in3.7 miEast (100°)3.5 mphScattered Clouds
11:00 PM77.0 °F77.0 °F100 %29.89 in4.0 miESE (120°)3.5 mphPartly Cloudy
11:00 PM77.0 °F77.0 °F100 %29.89 in3.7 miESE (110°)4.6 mphScattered Clouds
11:13 PM77.0 °F77.0 °F100 %29.89 in3.7 miEast (90°)3.5 mphRainLight Rain
11:14 PM77.0 °F77.0 °F100 %29.89 in3.1 miEast (90°)3.5 mphRainLight Rain
11:20 PM77.0 °F77.0 °F100 %29.89 in1.9 miENE (60°)4.6 mphRainRain
11:30 PM77.0 °F77.0 °F100 %29.89 in1.9 miNE (50°)4.6 mphRainRain
11:49 PM77.0 °F77.0 °F100 %29.89 in3.1 miNE (50°)4.6 mphScattered Clouds
Hourly data recorded from WAAA, located miles away from Hasanudin, Indonesia







STORIES FROM OUR PARTNERS